DW1970 Bodega Bay CA US current weather conditions

sailwx.info

Wind from 119 at 0 knots

Air temperature 11.7° C
Dewpoint 11.2° C

Last reported at 2020-Sep-29 13:01 UTC.
Time now 2020-Sep-29 14:06 UTC

Location: N 38°23' W 123°04'.
View on Google Maps.

See reports from other nearby stations

  
Tides and Currents Weather Stations Pressure Air Temp Water Temp Dewpoint Dewpoint Depression Visibility Wind Speed Wind Dir Waves Ship Positions
date/time (UTC)wind fromknots sea level pressurealtimeterstation pressurevisibilityair tempwater tempwave heightnotes
2020-Sep-29 13:01 119 0 11.7
2020-Sep-29 12:46 119 11.7
2020-Sep-29 12:30 119 0 11.7
2020-Sep-29 12:16 119 11.7
2020-Sep-29 12:00 119 11.7
2020-Sep-29 11:45 119 11.7
2020-Sep-29 11:30 119 12.2
2020-Sep-29 11:15 119 0 12.2
2020-Sep-29 11:02 119 12.2
2020-Sep-29 10:45 119 12.2
2020-Sep-29 10:31 119 12.2
2020-Sep-29 10:15 094 0 12.2
2020-Sep-29 10:00 131 0 12.2
2020-Sep-29 09:46 131 0 12.8
2020-Sep-29 09:31 131 12.8
2020-Sep-29 09:16 131 0 12.8
2020-Sep-29 09:00 129 0 12.2
2020-Sep-29 08:45 178 0 12.2
2020-Sep-29 08:31 150 0 12.2
2020-Sep-29 08:15 128 0 12.8
2020-Sep-29 08:00 129 0 12.2
2020-Sep-29 07:45 205 0 11.7
2020-Sep-29 07:30 205 1 11.7
2020-Sep-29 07:15 104 11.1
2020-Sep-29 07:00 104 11.1
2020-Sep-29 06:45 104 0 11.1
2020-Sep-29 06:30 104 0 11.7
2020-Sep-29 06:15 121 12.2
2020-Sep-29 06:02 121 0 13.3
2020-Sep-29 05:48 127 13.3
2020-Sep-29 05:31 127 13.9
2020-Sep-29 05:16 127 0 13.9
2020-Sep-29 05:02 127 0 13.3
2020-Sep-29 04:47 127 0 13.3
2020-Sep-29 04:32 127 0 13.9
2020-Sep-29 04:16 127 1 13.9
2020-Sep-29 04:02 210 0 13.9
2020-Sep-29 03:46 210 0 14.4
2020-Sep-29 03:31 208 0 14.4
2020-Sep-29 03:16 214 0 14.4
2020-Sep-29 03:01 214 0 14.4
2020-Sep-29 02:46 214 0 14.4
2020-Sep-29 02:31 218 2 14.4
2020-Sep-29 02:16 247 0 15.0
2020-Sep-29 02:01 066 0 15.6
2020-Sep-29 01:46 212 1 16.1
2020-Sep-29 01:31 140 0 17.2
2020-Sep-29 01:16 172 0 17.8
2020-Sep-29 01:00 231 17.8
2020-Sep-29 00:46 231 0 18.3
2020-Sep-29 00:31 228 1 18.9
2020-Sep-29 00:15 219 2 22.2
2020-Sep-29 00:00 015 0 21.7
2020-Sep-28 23:45 243 1 22.8
2020-Sep-28 23:31 339 2 23.3
2020-Sep-28 23:16 346 2 23.3
2020-Sep-28 23:00 310 2 23.3
2020-Sep-28 22:45 341 2 22.8
2020-Sep-28 22:30 338 1 22.2
2020-Sep-28 22:15 313 0 21.7
2020-Sep-28 22:00 300 0 21.7
2020-Sep-28 21:45 339 0 21.7
2020-Sep-28 21:30 285 0 21.1
2020-Sep-28 21:16 287 1 21.7
2020-Sep-28 21:00 309 1 22.2
2020-Sep-28 20:45 307 1 22.2
2020-Sep-28 20:30 341 1 22.2
2020-Sep-28 20:15 021 1 21.7
2020-Sep-28 20:00 307 1 21.7
2020-Sep-28 19:45 323 1 21.7
2020-Sep-28 19:30 320 1 21.7
2020-Sep-28 19:15 330 0 21.7
2020-Sep-28 19:00 239 1 21.7
2020-Sep-28 18:45 302 1 21.7
2020-Sep-28 18:30 314 0 21.7
2020-Sep-28 18:15 294 0 21.7
2020-Sep-28 18:00 267 1 22.2
2020-Sep-28 17:45 292 1 22.8
2020-Sep-28 17:30 229 2 22.2
2020-Sep-28 17:15 223 2 22.2
2020-Sep-28 17:00 225 1 21.7
2020-Sep-28 16:45 215 0 21.1
2020-Sep-28 16:18 235 0 20.0
2020-Sep-28 16:02 245 0 20.6
2020-Sep-28 15:32 104 0 19.4
2020-Sep-28 15:16 096 1 18.9
2020-Sep-28 15:01 060 0 18.9
2020-Sep-28 14:46 064 0 19.4
2020-Sep-28 14:31 083 1 19.4
2020-Sep-28 14:16 065 1 20.6
2020-Sep-28 14:01 349 0 23.3
2020-Sep-28 13:45 357 0 25.6
2020-Sep-28 13:31 283 2 28.3
2020-Sep-28 13:15 223 2 29.4
2020-Sep-28 13:01 332 2 28.3
2020-Sep-28 12:46 140 0 28.3
2020-Sep-28 12:32 056 1 28.3
2020-Sep-28 12:17 177 1 28.3
2020-Sep-28 12:01 062 1 27.8
2020-Sep-28 11:45 051 0 27.2
2020-Sep-28 11:30 177 1 27.2
2020-Sep-28 11:15 027 0 26.7
2020-Sep-28 11:01 175 0 26.7
2020-Sep-28 10:45 221 4 26.7
2020-Sep-28 10:30 148 0 28.3
2020-Sep-28 10:15 027 1 28.9
2020-Sep-28 10:00 099 0 28.9
2020-Sep-28 09:45 150 2 29.4
2020-Sep-28 09:30 117 3 30.0
2020-Sep-28 09:15 150 2 29.4
2020-Sep-28 09:01 175 3 30.0
2020-Sep-28 08:45 160 3 30.0
2020-Sep-28 08:31 159 2 29.4
2020-Sep-28 08:15 072 0 29.4
2020-Sep-28 08:00 117 1 29.4
2020-Sep-28 07:45 152 1 27.8
2020-Sep-28 07:30 158 1 26.7
2020-Sep-28 07:15 182 0 25.6
2020-Sep-28 07:00 188 0 25.0
2020-Sep-28 06:45 166 0 24.4
2020-Sep-28 06:31 141 1 24.4
2020-Sep-28 05:46 180 0 24.4
2020-Sep-28 05:45 180 0 24.4
2020-Sep-28 05:32 180 1 25.0
2020-Sep-28 05:17 102 1 23.9
2020-Sep-28 05:01 183 2 23.3
2020-Sep-28 04:33 069 1 22.2
2020-Sep-28 04:17 075 0 22.2
2020-Sep-28 04:02 250 0 22.8
2020-Sep-28 03:46 339 1 23.9
2020-Sep-28 03:33 131 2 23.3
2020-Sep-28 03:16 111 1 22.2
2020-Sep-28 03:03 218 2 21.7
2020-Sep-28 02:46 112 1 25.0
2020-Sep-28 02:31 131 1 24.4
2020-Sep-28 02:16 258 1 26.1
2020-Sep-28 02:01 107 1 27.2
2020-Sep-28 01:46 081 1 27.2
2020-Sep-28 01:31 112 1 25.6
2020-Sep-28 01:17 104 1 25.6
2020-Sep-28 01:01 115 0 27.2
2020-Sep-28 00:46 322 2 28.9
2020-Sep-28 00:31 357 2 28.9
2020-Sep-28 00:16 354 1 28.9
2020-Sep-28 00:01 284 0 28.3
2020-Sep-27 23:46 328 1 27.8
2020-Sep-27 23:32 239 2 28.3
2020-Sep-27 23:16 281 2 28.9
2020-Sep-27 23:01 358 5 28.9
2020-Sep-27 22:46 350 3 29.4
2020-Sep-27 22:31 349 2 28.9
2020-Sep-27 22:16 286 2 28.3
2020-Sep-27 22:01 002 3 28.9
2020-Sep-27 21:46 360 4 28.9
2020-Sep-27 21:30 002 3 28.9
2020-Sep-27 21:16 322 3 28.3
2020-Sep-27 21:00 327 2 28.3
2020-Sep-27 20:46 284 2 27.8
2020-Sep-27 20:31 331 3 27.8
2020-Sep-27 20:15 277 1 27.2
2020-Sep-27 20:00 267 2 25.6
2020-Sep-27 19:45 218 2 25.6
2020-Sep-27 19:30 235 2 25.6
2020-Sep-27 19:15 227 2 24.4
2020-Sep-27 19:00 337 2 24.4
2020-Sep-27 18:45 234 1 24.4
2020-Sep-27 18:30 321 0 23.9
2020-Sep-27 18:15 297 1 22.8
2020-Sep-27 18:00 332 1 22.8
2020-Sep-27 17:46 294 1 22.2
2020-Sep-27 17:45 298 1 22.2
2020-Sep-27 17:31 311 2 23.3
2020-Sep-27 17:16 221 1 23.9
2020-Sep-27 17:03 347 1 23.9
2020-Sep-27 16:46 010 1 22.8
2020-Sep-27 16:31 227 0 22.2
2020-Sep-27 16:17 227 2 21.1
2020-Sep-27 16:01 277 0 21.1
2020-Sep-27 15:46 320 0 23.3
2020-Sep-27 15:31 130 0 22.2
2020-Sep-27 15:16 146 1 20.0
2020-Sep-27 15:01 205 0 19.4
2020-Sep-27 14:46 321 1 20.0
2020-Sep-27 14:30 127 2 18.9
2020-Sep-27 14:16 116 1 18.9
2020-Sep-27 14:01 137 1 19.4